| time (UTC) | temp F | wind direction | speed MPH | gust MPH | rain 1hr in | rain 24hr in | rain mn in | humidity % | barometer mb |
| 20260906124123 | 73 | 45 | 4.0 | 6.0 | 0.00 | 0.00 | 0.00 | 96 | 992.1 |
| 20260906123123 | 72 | 48 | 3.0 | 5.0 | 0.00 | 0.00 | 0.00 | 97 | 991.9 |
| 20260906122123 | 72 | 57 | 3.0 | 4.0 | 0.00 | 0.00 | 0.00 | 98 | 991.8 |
| 20260906121123 | 72 | 46 | 3.0 | 6.0 | 0.00 | 0.00 | 0.00 | 98 | 991.5 |
| 20260906120122 | 71 | 51 | 4.0 | 7.0 | 0.00 | 0.00 | 0.00 | 99 | 991.5 |
| 20260906115123 | 71 | 50 | 3.0 | 6.0 | 0.00 | 0.00 | 0.00 | 99 | 991.4 |
| 20260906114123 | 71 | 29 | 3.0 | 6.0 | 0.00 | 0.00 | 0.00 | 99 | 991.2 |
| 20260906113123 | 71 | 45 | 3.0 | 5.0 | 0.00 | 0.00 | 0.00 | 99 | 990.8 |
| 20260906112123 | 71 | 43 | 3.0 | 6.0 | 0.00 | 0.00 | 0.00 | 99 | 990.8 |
| 20260906111123 | 71 | 37 | 3.0 | 4.0 | 0.00 | 0.00 | 0.00 | 98 | 990.7 |
| 20260906110144 | 71 | 45 | 3.0 | 6.0 | 0.00 | 0.00 | 0.00 | 98 | 990.7 |
| 20260906105124 | 71 | 46 | 3.0 | 5.0 | 0.00 | 0.00 | 0.00 | 98 | 990.7 |
| 20260906104123 | 71 | 44 | 4.0 | 7.0 | 0.00 | 0.00 | 0.00 | 98 | 990.5 |
| 20260906103123 | 71 | 48 | 3.0 | 6.0 | 0.00 | 0.00 | 0.00 | 98 | 990.4 |
| 20260906102122 | 71 | 53 | 3.0 | 5.0 | 0.00 | 0.00 | 0.00 | 98 | 990.2 |
| 20260906101123 | 71 | 40 | 3.0 | 5.0 | 0.00 | 0.00 | 0.00 | 98 | 990.2 |
| 20260906100144 | 71 | 51 | 3.0 | 5.0 | 0.00 | 0.00 | 0.00 | 97 | 990.2 |
| 20260906095124 | 71 | 68 | 4.0 | 6.0 | 0.00 | 0.00 | 0.00 | 97 | 990.2 |
| 20260906094124 | 71 | 64 | 3.0 | 5.0 | 0.00 | 0.00 | 0.00 | 97 | 990.2 |
| 20260906093122 | 71 | 67 | 3.0 | 5.0 | 0.00 | 0.00 | 0.00 | 97 | 990.2 |
| 20260906092122 | 71 | 46 | 3.0 | 5.0 | 0.00 | 0.00 | 0.00 | 97 | 990.1 |
| 20260906091124 | 71 | 43 | 3.0 | 7.0 | 0.00 | 0.00 | 0.00 | 97 | 990.2 |
| 20260906090124 | 71 | 38 | 3.0 | 5.0 | 0.00 | 0.00 | 0.00 | 97 | 990.2 |
| 20260906085122 | 71 | 34 | 2.0 | 5.0 | 0.00 | 0.00 | 0.00 | 97 | 990.2 |
| 20260906084123 | 71 | 29 | 3.0 | 4.0 | 0.00 | 0.00 | 0.00 | 97 | 990.4 |
| 20260906083143 | 71 | 54 | 2.0 | 4.0 | 0.00 | 0.00 | 0.00 | 97 | 990.4 |
| 20260906082143 | 71 | 49 | 3.0 | 5.0 | 0.00 | 0.00 | 0.00 | 97 | 990.5 |
| 20260906081124 | 71 | 50 | 3.0 | 4.0 | 0.00 | 0.00 | 0.00 | 97 | 990.2 |
| 20260906080122 | 71 | 36 | 3.0 | 6.0 | 0.00 | 0.00 | 0.00 | 97 | 990.2 |
| 20260906075144 | 71 | 32 | 2.0 | 4.0 | 0.00 | 0.00 | 0.00 | 97 | 990.4 |
| 20260906074123 | 71 | 55 | 2.0 | 4.0 | 0.00 | 0.00 | 0.00 | 97 | 990.5 |
| 20260906073122 | 71 | 42 | 2.0 | 4.0 | 0.00 | 0.00 | 0.00 | 97 | 990.6 |
| 20260906072122 | 71 | 30 | 1.0 | 4.0 | 0.00 | 0.00 | 0.00 | 97 | 990.7 |
| 20260906071122 | 71 | 59 | 2.0 | 4.0 | 0.00 | 0.00 | 0.00 | 98 | 990.6 |
| 20260906070122 | 71 | 45 | 1.0 | 4.0 | 0.00 | 0.00 | 0.00 | 98 | 990.6 |
| 20260906065123 | 71 | 46 | 1.0 | 3.0 | 0.00 | 0.00 | 0.00 | 98 | 990.6 |
| 20260906064144 | 71 | 41 | 3.0 | 4.0 | 0.00 | 0.00 | 0.00 | 97 | 990.5 |
| 20260906063144 | 71 | 40 | 3.0 | 6.0 | 0.00 | 0.00 | 0.00 | 97 | 990.7 |
| 20260906062144 | 71 | 39 | 3.0 | 4.0 | 0.00 | 0.00 | 0.00 | 97 | 990.9 |
| 20260906061143 | 71 | 28 | 2.0 | 5.0 | 0.00 | 0.00 | 0.00 | 97 | 990.8 |
| 20260906060143 | 71 | 48 | 2.0 | 5.0 | 0.00 | 0.00 | 0.00 | 97 | 990.8 |
| 20260906055123 | 71 | 39 | 2.0 | 6.0 | 0.00 | 0.00 | 0.00 | 97 | 990.9 |
| 20260906054122 | 71 | 57 | 3.0 | 5.0 | 0.00 | 0.00 | 0.00 | 97 | 990.8 |
| 20260906053122 | 71 | 48 | 3.0 | 5.0 | 0.00 | 0.00 | 0.00 | 97 | 990.8 |
| 20260906052122 | 71 | 54 | 3.0 | 6.0 | 0.00 | 0.00 | 0.00 | 97 | 990.6 |
| 20260906051122 | 71 | 51 | 3.0 | 5.0 | 0.00 | 0.00 | 0.00 | 97 | 990.4 |
| 20260906050122 | 72 | 39 | 3.0 | 5.0 | 0.00 | 0.00 | 0.00 | 96 | 990.4 |
| 20260906045143 | 72 | 48 | 4.0 | 6.0 | 0.00 | 0.00 | 0.00 | 96 | 990.2 |
| 20260906044122 | 72 | 34 | 3.0 | 5.0 | 0.00 | 0.00 | 0.00 | 96 | 990.0 |
| 20260906043122 | 72 | 39 | 3.0 | 6.0 | 0.00 | 0.00 | 0.00 | 96 | 989.7 |
| 20260906042123 | 73 | 45 | 3.0 | 5.0 | 0.00 | 0.00 | 0.00 | 95 | 989.7 |
| 20260906041122 | 73 | 52 | 3.0 | 6.0 | 0.00 | 0.00 | 0.00 | 95 | 989.6 |
| 20260906040143 | 73 | 36 | 3.0 | 6.0 | 0.00 | 0.00 | 0.00 | 95 | 989.6 |
| 20260906035144 | 73 | 36 | 3.0 | 4.0 | 0.00 | 0.00 | 0.00 | 95 | 989.5 |
| 20260906034144 | 73 | 27 | 2.0 | 5.0 | 0.00 | 0.00 | 0.00 | 95 | 989.5 |
| 20260906033122 | 73 | 27 | 2.0 | 5.0 | 0.00 | 0.00 | 0.00 | 95 | 989.2 |
| 20260906032123 | 74 | 32 | 3.0 | 5.0 | 0.00 | 0.00 | 0.00 | 95 | 989.2 |
| 20260906031122 | 74 | 59 | 3.0 | 5.0 | 0.00 | 0.00 | 0.00 | 95 | 989.2 |
| 20260906030122 | 74 | 65 | 2.0 | 5.0 | 0.00 | 0.00 | 0.00 | 94 | 989.2 |
| 20260906025124 | 75 | 44 | 2.0 | 6.0 | 0.00 | 0.00 | 0.00 | 93 | 989.2 |
| 20260906024123 | 75 | 55 | 3.0 | 5.0 | 0.00 | 0.00 | 0.00 | 93 | 989.1 |
| 20260906023122 | 75 | 32 | 3.0 | 6.0 | 0.00 | 0.00 | 0.00 | 92 | 989.1 |
| 20260906022123 | 76 | 32 | 3.0 | 5.0 | 0.00 | 0.00 | 0.00 | 92 | 989.0 |
| 20260906021122 | 76 | 41 | 2.0 | 4.0 | 0.00 | 0.00 | 0.00 | 91 | 989.0 |
| 20260906020123 | 77 | 31 | 2.0 | 4.0 | 0.00 | 0.00 | 0.00 | 91 | 989.0 |
| 20260906015123 | 77 | 46 | 2.0 | 5.0 | 0.00 | 0.00 | 0.00 | 90 | 988.9 |
| 20260906014122 | 77 | 19 | 2.0 | 4.0 | 0.00 | 0.00 | 0.00 | 90 | 988.7 |
| 20260906013122 | 78 | 38 | 2.0 | 4.0 | 0.00 | 0.00 | 0.00 | 89 | 988.6 |
| 20260906012122 | 78 | 45 | 3.0 | 5.0 | 0.00 | 0.00 | 0.00 | 89 | 988.6 |
| 20260906011122 | 79 | 47 | 4.0 | 7.0 | 0.00 | 0.00 | 0.00 | 88 | 988.2 |
| 20260906010143 | 79 | 38 | 4.0 | 7.0 | 0.00 | 0.00 | 0.00 | 87 | 988.2 |
| 20260906005122 | 80 | 36 | 4.0 | 5.0 | 0.00 | 0.00 | 0.00 | 85 | 988.2 |
| 20260906004122 | 81 | 42 | 5.0 | 8.0 | 0.00 | 0.00 | 0.00 | 84 | 988.0 |
| 20260906003122 | 82 | 50 | 4.0 | 7.0 | 0.00 | 0.00 | 0.00 | 82 | 988.0 |
| 20260906002143 | 83 | 22 | 4.0 | 7.0 | 0.00 | 0.00 | 0.00 | 81 | 988.0 |
| 20260906001123 | 84 | 23 | 4.0 | 7.0 | 0.00 | 0.00 | 0.00 | 79 | 987.9 |
| 20260906000122 | 84 | 26 | 4.0 | 6.0 | 0.00 | 0.00 | 0.00 | 79 | 987.9 |
| 20260905235122 | 85 | 18 | 4.0 | 6.0 | 0.00 | 0.00 | 0.00 | 78 | 988.0 |
| 20260905234143 | 85 | 33 | 4.0 | 7.0 | 0.00 | 0.00 | 0.00 | 78 | 987.8 |
| 20260905233143 | 86 | 49 | 5.0 | 7.0 | 0.00 | 0.00 | 0.00 | 77 | 987.5 |
| 20260905232123 | 86 | 39 | 5.0 | 9.0 | 0.00 | 0.00 | 0.00 | 76 | 987.4 |
| 20260905231122 | 87 | 51 | 5.0 | 8.0 | 0.00 | 0.00 | 0.00 | 75 | 987.2 |
| 20260905230122 | 88 | 39 | 5.0 | 10.0 | 0.00 | 0.00 | 0.00 | 75 | 987.2 |
| 20260905225122 | 89 | 43 | 5.0 | 8.0 | 0.00 | 0.00 | 0.00 | 74 | 987.6 |
| 20260905224123 | 90 | 45 | 5.0 | 8.0 | 0.00 | 0.00 | 0.00 | 72 | 987.4 |
| 20260905223143 | 91 | 60 | 4.0 | 8.0 | 0.00 | 0.00 | 0.00 | 69 | 987.4 |
| 20260905222122 | 91 | 24 | 4.0 | 7.0 | 0.00 | 0.00 | 0.00 | 69 | 987.4 |
| 20260905221144 | 93 | 42 | 3.0 | 6.0 | 0.00 | 0.00 | 0.00 | 66 | 987.2 |
| 20260905220122 | 93 | 39 | 4.0 | 7.0 | 0.00 | 0.00 | 0.00 | 65 | 987.2 |
| 20260905215122 | 93 | 24 | 4.0 | 7.0 | 0.00 | 0.00 | 0.00 | 65 | 987.2 |
| 20260905214144 | 94 | 43 | 3.0 | 5.0 | 0.00 | 0.00 | 0.00 | 63 | 987.2 |
| 20260905213122 | 95 | 77 | 2.0 | 5.0 | 0.00 | 0.00 | 0.00 | 63 | 987.1 |
| 20260905212123 | 95 | 15 | 3.0 | 6.0 | 0.00 | 0.00 | 0.00 | 63 | 987.1 |
| 20260905211123 | 96 | 41 | 4.0 | 7.0 | 0.00 | 0.00 | 0.00 | 63 | 987.1 |
| 20260905210122 | 95 | 37 | 4.0 | 7.0 | 0.00 | 0.00 | 0.00 | 63 | 987.1 |
| 20260905205122 | 95 | 45 | 3.0 | 5.0 | 0.00 | 0.00 | 0.00 | 63 | 987.2 |
| 20260905204123 | 94 | 41 | 4.0 | 8.0 | 0.00 | 0.00 | 0.00 | 64 | 987.2 |
| 20260905203122 | 95 | 54 | 4.0 | 7.0 | 0.00 | 0.00 | 0.00 | 63 | 987.5 |
| 20260905202122 | 95 | 123 | 3.0 | 6.0 | 0.00 | 0.00 | 0.00 | 63 | 987.5 |
| 20260905201123 | 94 | 33 | 3.0 | 5.0 | 0.00 | 0.00 | 0.00 | 65 | 987.6 |
| 20260905200122 | 94 | 42 | 3.0 | 7.0 | 0.00 | 0.00 | 0.00 | 64 | 987.6 |
| 20260905195122 | 94 | 57 | 2.0 | 5.0 | 0.00 | 0.00 | 0.00 | 65 | 987.5 |
| 20260905194123 | 92 | 20 | 4.0 | 7.0 | 0.00 | 0.00 | 0.00 | 67 | 987.5 |
| 20260905193143 | 94 | 32 | 3.0 | 4.0 | 0.00 | 0.00 | 0.00 | 67 | 987.7 |
| 20260905192122 | 92 | 6 | 3.0 | 7.0 | 0.00 | 0.00 | 0.00 | 67 | 987.7 |
| 20260905191123 | 93 | 30 | 3.0 | 5.0 | 0.00 | 0.00 | 0.00 | 67 | 987.9 |
| 20260905190143 | 94 | 43 | 3.0 | 6.0 | 0.00 | 0.00 | 0.00 | 65 | 987.9 |
| 20260905185143 | 94 | 13 | 3.0 | 7.0 | 0.00 | 0.00 | 0.00 | 65 | 988.0 |
| 20260905184124 | 94 | 30 | 3.0 | 6.0 | 0.00 | 0.00 | 0.00 | 65 | 988.0 |
| 20260905183122 | 94 | 43 | 4.0 | 6.0 | 0.00 | 0.00 | 0.00 | 65 | 988.1 |
| 20260905182123 | 95 | 62 | 3.0 | 5.0 | 0.00 | 0.00 | 0.00 | 63 | 988.0 |
| 20260905181124 | 96 | 48 | 3.0 | 7.0 | 0.00 | 0.00 | 0.00 | 63 | 988.1 |
| 20260905180123 | 95 | 40 | 4.0 | 6.0 | 0.00 | 0.00 | 0.00 | 63 | 988.1 |
| 20260905175123 | 94 | 60 | 3.0 | 6.0 | 0.00 | 0.00 | 0.00 | 65 | 988.2 |
| 20260905174144 | 95 | 60 | 4.0 | 6.0 | 0.00 | 0.00 | 0.00 | 64 | 988.2 |
| 20260905173123 | 94 | 49 | 3.0 | 6.0 | 0.00 | 0.00 | 0.00 | 67 | 988.2 |
| 20260905172123 | 93 | 46 | 3.0 | 7.0 | 0.00 | 0.00 | 0.00 | 67 | 988.5 |
| 20260905171124 | 93 | 45 | 4.0 | 6.0 | 0.00 | 0.00 | 0.00 | 67 | 988.5 |
| 20260905170123 | 94 | 54 | 3.0 | 7.0 | 0.00 | 0.00 | 0.00 | 67 | 988.5 |
| 20260905165124 | 93 | 56 | 4.0 | 6.0 | 0.00 | 0.00 | 0.00 | 68 | 988.6 |
| 20260905164124 | 92 | 47 | 3.0 | 6.0 | 0.00 | 0.00 | 0.00 | 68 | 988.6 |
| 20260905163123 | 93 | 53 | 2.0 | 5.0 | 0.00 | 0.00 | 0.00 | 69 | 988.7 |
| 20260905162123 | 92 | 58 | 3.0 | 5.0 | 0.00 | 0.00 | 0.00 | 70 | 988.7 |
| 20260905161124 | 91 | 45 | 4.0 | 6.0 | 0.00 | 0.00 | 0.00 | 71 | 988.7 |
| 20260905160124 | 91 | 39 | 4.0 | 8.0 | 0.00 | 0.00 | 0.00 | 70 | 988.7 |
| 20260905155123 | 91 | 33 | 3.0 | 5.0 | 0.00 | 0.00 | 0.00 | 70 | 988.7 |
| 20260905154124 | 90 | 64 | 3.0 | 6.0 | 0.00 | 0.00 | 0.00 | 70 | 988.5 |
| 20260905153144 | 90 | 76 | 2.0 | 4.0 | 0.00 | 0.00 | 0.00 | 70 | 988.4 |
| 20260905152144 | 89 | 41 | 4.0 | 7.0 | 0.00 | 0.00 | 0.00 | 71 | 988.4 |
| 20260905151124 | 89 | 61 | 3.0 | 5.0 | 0.00 | 0.00 | 0.00 | 71 | 988.2 |
| 20260905150124 | 89 | 37 | 3.0 | 7.0 | 0.00 | 0.00 | 0.00 | 70 | 988.2 |
| 20260905145144 | 89 | 59 | 3.0 | 7.0 | 0.00 | 0.00 | 0.00 | 69 | 988.2 |
| 20260905144124 | 89 | 42 | 2.0 | 5.0 | 0.00 | 0.00 | 0.00 | 70 | 988.1 |
| 20260905143124 | 88 | 24 | 2.0 | 6.0 | 0.00 | 0.00 | 0.00 | 72 | 988.1 |
| 20260905142124 | 88 | 40 | 1.0 | 5.0 | 0.00 | 0.00 | 0.00 | 72 | 987.9 |
| 20260905141124 | 89 | 60 | 0.0 | 3.0 | 0.00 | 0.00 | 0.00 | 71 | 988.0 |
| 20260905140123 | 88 | 68 | 1.0 | 3.0 | 0.00 | 0.00 | 0.00 | 72 | 988.0 |
| 20260905135122 | 87 | 91 | 1.0 | 2.0 | 0.00 | 0.00 | 0.00 | 74 | 987.9 |
| 20260905134124 | 85 | 45 | 0.0 | 0.0 | 0.00 | 0.00 | 0.00 | 79 | 987.9 |
| 20260905133123 | 86 | 113 | 0.0 | 2.0 | 0.00 | 0.00 | 0.00 | 78 | 987.9 |
| 20260905132123 | 85 | 175 | 0.0 | 3.0 | 0.00 | 0.00 | 0.00 | 79 | 988.0 |
| 20260905131124 | 84 | 45 | 0.0 | 2.0 | 0.00 | 0.00 | 0.00 | 82 | 987.9 |
| 20260905130123 | 83 | 180 | 0.0 | 0.0 | 0.00 | 0.00 | 0.00 | 83 | 987.9 |
| 20260905125123 | 81 | 135 | 0.0 | 0.0 | 0.00 | 0.00 | 0.00 | 90 | 987.6 |